Home   Weather   Des Moines   Past weeks

Flag for USA Past Weather in Des Moines, Iowa, USA — Yesterday and Last 2 Weeks

Now
44 °F

Drizzle. Low clouds.


Feels Like: 37 °F
Forecast: 40 / 49 °F
Wind: 15 mph from Northeast

Location: Des Moines International Airport

Current Time: Apr 30, 2017 at 1:57:46 pm

Latest Report: Apr 30, 2017 at 12:54 pm


Visibility: 10 mi

Pressure: 29.68 "Hg

Humidity: 89%

Dew Point: 41 °F

Location of Des MoinesLocation

Past Weather in Des Moines — Graph

°F

Des Moines Temperature Yesterday

Maximum temperature yesterday: 46 °F (at 8:54 am)
Minimum temperature yesterday: 41 °F (at 9:08 pm)
Average temperature yesterday: 44 °F

High & Low Weather Summary for the Past Weeks

 TemperatureHumidityPressure
High80 °F (Apr 19, 6:08 pm)96% (Apr 30, 9:54 am)30.23 "Hg (Apr 30, 9:54 am)
Low37 °F (Apr 27, 4:42 am)17% (Apr 24, 2:54 pm)29.40 "Hg (Apr 25, 4:54 pm)
Average55 °F63%29.91 "Hg
* Reported Apr 15 11:54 am — Apr 30 11:54 am, Des Moines, Weather by CustomWeather, © 2017

Note: Actual official high and low records may vary slightly from our data, if they occured in-between our weather recording intervals... More about our weather records

Advertising

Des Moines Weather History for the Previous 24 Hours

Scroll right to see more
 ConditionsComfort  
Time TempWeatherWind HumidityBarometerVisibility
11:54 am
Sun, Apr 30
43 °FDrizzle. Low clouds.23 mph89%29.70 "Hg10 mi
10:54 am43 °FDrizzle. Low clouds.21 mph93%29.77 "Hg10 mi
9:54 am42 °FLight rain. Fog.15 mph96%29.85 "Hg2 mi
8:54 am42 °FDrizzle. Fog.15 mph92%29.83 "Hg6 mi
7:54 am42 °FDrizzle. Fog.13 mph92%29.82 "Hg5 mi
7:31 am42 °FDrizzle. Fog.18 mph92%29.77 "Hg6 mi
6:54 am41 °FLow clouds.20 mph93%29.79 "Hg10 mi
5:54 am41 °FDrizzle. Low clouds.15 mph93%29.84 "Hg9 mi
4:54 am41 °FDrizzle. Fog.13 mph93%29.91 "Hg6 mi
3:54 am41 °FDrizzle. Fog.16 mph93%29.91 "Hg6 mi
2:54 am41 °FDrizzle. Low clouds.14 mph89%29.92 "Hg10 mi
1:54 am41 °FDrizzle. Low clouds.17 mph89%29.91 "Hg10 mi
12:54 am41 °FLight rain. Fog.20 mph89%29.95 "Hg4 mi
11:54 pm
Sat, Apr 29
41 °FLight rain. Fog.14 mph93%29.99 "Hg3 mi
11:03 pm41 °FLight rain. Fog.16 mph93%30.02 "Hg4 mi
10:54 pm41 °FLight rain. Fog.14 mph93%30.04 "Hg2 mi
10:11 pm41 °FRain. Fog.17 mph93%30.01 "Hg2 mi
9:54 pm41 °FLight rain. Fog.16 mph93%30.02 "Hg4 mi
9:30 pm41 °FLight rain. Fog.15 mph93%30.01 "Hg3 mi
9:18 pm41 °FLight rain. Fog.18 mph93%29.99 "Hg2 mi
9:08 pm41 °FLight rain. Fog.18 mph93%29.98 "Hg2 mi
7:54 pm43 °FDrizzle. Overcast.18 mph82%30.00 "Hg5 mi
6:54 pm43 °FDrizzle. Mostly cloudy.17 mph82%30.01 "Hg5 mi
5:54 pm44 °FOvercast.13 mph76%30.02 "Hg10 mi
5:36 pm44 °FMostly cloudy.22 mph76%29.97 "Hg10 mi
5:17 pm44 °FCloudy.22 mph79%29.89 "Hg10 mi
4:54 pm44 °FMostly cloudy.20 mph79%29.96 "Hg10 mi
3:54 pm44 °FMostly cloudy.20 mph82%30.06 "Hg10 mi
3:08 pm44 °FLight rain. Mostly cloudy.22 mph85%30.07 "Hg10 mi
2:33 pm44 °FLight rain. Mostly cloudy.20 mph85%30.11 "Hg10 mi
1:54 pm44 °FLight rain. Mostly cloudy.18 mph89%30.11 "Hg7 mi
Weather by CustomWeather, © 2017

See weather overviewHow to use our weather pages